Weather in Kalugino

Russia / Tambov Oblast     52°24′25″N   42°17′24″E
temp.,
°C
wind,
m/s
gust,
m/s
humid.,
%
clouds,
%
prec.,
mm/h
press.,
hPa
HPBL,
m
19 january, wed
wed1900:00−1s479598 0.1 1008448
03:00−3se2498100 0.1 1009109
06:00−3nne2298100 0.8 101087
09:00−6n5796100 2.5 1012226
12:00−7nne589498 0.9 1014304
15:00−7nne3696100 1.2 1016262
18:00−11nne359765 0.2 101778
21:00−14nne249899 0.2 101846
20 january, thu
thu2000:00−18ne1110091 0.1 10199
03:00−20nw00100100 0.1 10199
06:00−20ssw22100100 0.1 101914
09:00−20s2210085 0.1 101933
12:00−14ssw369793 0.0 1018148
15:00−13s379667 0.1 1017171
18:00−16s4109986 0.0 1017130
21:00−16s5129887 0.0 1017187
21 january, fri
fri2100:00−17s5139750 0.0 1016184
03:00−17sse5139648 0.0 1016194
06:00−16sse61594100 0.0 1014231
09:00−13sse71789100 0.0 1013354
12:00−10sse92093100 0.2 1010521
15:00−7sse91794100 1.4 1009582
18:00−7sse81694100 0.5 1007553
21:00−5sse81696100 1.8 1006681
22 january, sat
sat2200:00−8ssw48957 0.4 1009116
03:00−14s3610092 0.4 101168
06:00−14sse4910094 0.0 1012108
09:00−14s499980 0.0 1014115
12:00−10sse489679 0.0 1015213
15:00−10sse369699 0.0 1016137
18:00−13se3699100 0.0 101866
21:00−17se2210097 0.0 102024
23 january, sun
sun2300:00−17se22100100 0.0 102119
03:00−19se22100100 0.1 102312
06:00−12se23100100 0.1 102384
09:00−10e2399100 0.1 1025150
12:00−9ne2396100 0.0 1026111
15:00−9ne4794100 0.0 1027181
18:00−9ne41092100 0.0 1028221
21:00−8ne51193100 0.0 1028270